Theta_e
293 293 292 292 292 291 292 292 293 293 294 294 294 296 297 298 296 294 291 292 288 277 279 284 284 282 282 283 280 279 284 283 284 280 274 271 266 272 270 274 277 277 277 276 278 276 274 285 284 281 285 286 287 288
292 291 291 291 291 291 291 292 292 293 293 293 294 295 296 297 297 294 289 292 291 283 280 286 284 283 284 286 283 282 282 281 283 275 275 274 273 273 269 270 277 276 278 274 278 278 284 283 285 286 287 287 286 286
288 289 289 289 289 290 291 292 292 292 293 293 294 296 297 297 295 295 290 291 288 281 282 281 281 285 288 287 289 281 281 284 283 283 277 272 268 276 270 272 274 278 280 277 278 283 283 285 286 286 288 287 286 286
288 289 290 290 289 290 290 291 292 293 292 294 295 296 297 297 294 295 290 291 285 281 272 279 283 283 285 288 287 287 286 287 286 282 274 273 270 279 274 277 278 278 281 275 277 282 282 284 285 287 288 288 285 283
288 289 289 289 290 289 290 291 292 292 292 294 295 296 297 296 297 293 291 290 287 283 271 271 279 280 284 286 286 288 288 285 280 276 274 272 278 277 281 279 277 278 278 278 278 285 284 284 284 285 287 285 284 283
287 288 288 289 289 289 290 290 291 292 293 294 296 297 295 297 296 289 282 289 287 285 275 272 275 277 283 286 285 284 285 285 283 281 279 277 280 280 274 273 278 281 282 284 283 283 284 284 283 284 284 285 284 282
287 287 288 289 289 290 290 291 292 292 292 294 296 296 297 296 292 285 281 287 289 285 276 269 272 275 278 282 280 282 282 278 278 274 274 280 280 278 270 269 278 279 281 283 283 282 280 280 283 282 281 281 277 277
287 288 288 289 290 290 291 292 292 293 292 293 294 296 296 294 291 287 290 291 287 277 273 266 263 272 280 273 274 277 279 279 275 273 274 273 275 275 269 276 280 281 281 280 281 282 283 280 276 276 272 272 273 275
288 288 289 289 291 291 292 292 292 292 292 293 295 293 288 285 283 285 292 289 282 277 265 259 263 263 276 271 274 273 274 272 268 267 272 272 263 267 273 276 278 280 280 281 282 275 272 273 280 276 270 269 269 274
288 288 289 289 290 291 291 291 291 291 292 293 288 282 278 285 293 290 282 277 274 275 263 260 258 263 272 272 267 271 273 268 265 268 269 265 264 276 277 277 279 279 280 275 273 274 269 266 268 271 270 273 275 277
289 289 289 290 290 290 290 290 293 293 292 280 279 281 285 288 277 271 268 267 263 270 264 257 260 269 271 266 264 271 270 267 264 266 266 256 263 272 268 274 271 270 269 268 269 271 271 270 271 269 269 267 269 270
289 289 290 289 290 291 291 291 292 286 282 284 284 282 277 271 267 265 260 261 260 261 262 264 263 267 267 274 271 269 264 263 262 259 262 261 267 261 259 262 263 263 262 262 261 263 264 264 261 261 262 264 265 266
289 290 291 290 293 294 293 292 293 292 288 280 275 270 271 267 262 260 259 257 258 258 261 262 263 269 270 274 268 265 263 261 260 261 258 264 260 257 254 255 257 255 254 254 255 254 254 255 255 254 260 260 262 263
294 294 294 293 294 294 293 292 290 285 276 271 268 263 261 262 258 258 259 261 263 263 264 265 266 266 266 267 263 259 257 257 258 255 258 258 255 254 253 251 251 257 256 255 256 254 255 257 257 256 258 260 260 262
293 294 293 291 291 291 290 289 286 275 270 264 265 260 260 255 252 249 245 253 257 261 267 266 264 268 263 267 258 257 259 259 258 259 259 254 253 252 253 254 253 254 256 256 256 256 257 258 257 259 258 258 260 261
292 291 289 291 291 291 289 283 273 270 263 264 259 258 253 256 254 252 249 254 259 264 265 267 264 261 263 265 259 258 257 257 260 252 253 252 251 251 252 253 254 256 255 257 262 262 260 258 259 261 260 259 259 260
287 285 291 289 289 286 285 272 269 259 259 258 257 248 251 253 258 253 252 257 265 264 262 258 262 260 259 260 258 256 258 255 250 250 250 252 252 253 253 253 254 255 257 258 258 263 263 259 258 256 256 260 258 259
278 285 290 289 282 279 267 263 260 260 255 252 257 254 251 252 252 253 255 263 265 260 259 262 260 256 257 259 256 251 248 247 245 248 251 250 252 253 254 254 257 259 259 257 259 261 258 256 257 258 257 258 259 259
283 283 286 286 280 270 265 263 261 255 252 252 255 257 256 255 259 259 260 266 262 262 266 266 264 258 252 247 246 246 245 246 247 251 251 254 256 254 257 258 258 255 256 256 257 258 259 260 259 259 260 259 259 260
281 282 282 280 279 272 268 263 260 258 254 257 258 258 258 259 259 258 259 260 259 258 252 249 246 246 247 248 248 247 247 249 247 247 253 257 257 256 256 256 257 257 257 256 256 258 258 259 258 257 260 260 259 259
271 272 275 270 264 261 257 255 257 257 258 258 258 262 258 259 257 257 256 257 253 248 248 246 246 247 248 247 249 249 250 250 248 248 250 253 256 255 255 254 255 255 255 255 255 256 257 258 260 261 261 261 262 262
258 271 260 265 267 262 258 255 257 256 259 259 259 258 256 255 253 253 255 250 248 247 247 247 248 248 248 249 249 251 250 249 249 251 254 253 252 252 252 252 253 253 253 254 256 256 257 258 260 261 261 262 262 262
262 260 254 256 262 261 257 258 258 259 259 257 257 256 254 252 251 255 248 248 246 249 248 248 249 249 248 249 250 251 251 250 249 251 251 250 249 249 250 251 252 251 252 253 256 255 256 258 259 260 261 261 261 261
260 248 248 245 249 249 255 255 257 257 258 257 256 253 251 252 253 250 245 246 249 251 249 248 249 248 250 250 250 250 251 250 250 250 251 248 247 248 247 249 249 250 253 254 255 255 255 256 258 259 259 259 260 260
252 245 246 245 247 248 249 250 253 255 251 253 253 251 251 252 245 244 245 247 248 248 248 248 248 248 247 248 250 250 251 249 248 247 248 247 244 245 247 248 248 250 251 253 252 253 254 255 256 257 258 259 259 259
241 242 243 244 245 245 246 247 247 247 250 252 249 250 253 251 245 239 242 245 246 247 247 246 246 245 247 248 247 248 249 250 248 246 248 248 247 246 245 244 246 250 247 253 252 252 253 254 255 256 257 258 259 258
240 240 244 247 247 247 247 247 248 247 244 244 244 246 252 247 243 243 246 247 247 248 248 248 247 246 246 247 248 249 249 249 248 248 250 249 249 249 248 247 247 251 252 252 253 252 253 254 255 256 256 257 258 258
240 243 240 244 245 247 245 246 244 243 243 245 246 242 244 242 241 246 248 250 249 249 249 249 249 248 247 247 248 247 247 247 248 249 247 246 247 248 249 249 250 255 252 252 253 254 256 257 257 256 256 256 257 258
243 244 244 245 246 246 245 245 245 246 246 245 245 244 244 247 247 247 249 249 249 249 248 248 249 250 249 249 248 247 245 245 247 245 245 244 244 246 246 249 248 249 250 252 255 258 259 260 259 257 256 256 256 258
242 243 243 245 244 244 245 246 247 248 248 247 248 248 248 248 249 250 248 248 248 248 248 249 249 248 247 247 246 246 245 244 246 246 243 244 246 248 248 248 248 249 251 253 254 253 257 253 254 251 252 253 253 255
242 243 244 245 245 246 247 248 248 248 248 248 249 247 246 247 249 250 249 249 250 250 249 248 248 249 248 247 245 244 245 244 244 246 246 247 247 247 248 248 249 251 252 254 254 253 254 253 250 250 252 253 254 255
242 242 242 243 245 247 246 245 246 248 249 248 247 247 246 247 246 249 250 249 250 249 249 249 248 248 249 248 247 246 247 247 247 247 247 248 249 249 250 251 253 253 254 254 253 253 253 251 251 251 252 253 253 255
241 242 242 243 243 244 243 242 247 247 247 246 246 247 247 247 246 249 250 249 249 249 250 250 250 250 248 248 247 247 247 247 247 251 251 252 252 253 254 253 254 254 253 252 252 252 251 249 250 251 252 253 254 255
Wind_Speed
20 24 20 21 18 17 17 18 19 22 21 19 20 19 21 20 19 11 6 4 8 4 2 3 1 5 4 5 8 5 6 0 3 5 5 5 4 8 4 5 7 9 8 5 5 5 9 5 4 7 4 1 4 5
13 13 15 15 15 15 18 18 20 23 18 18 21 20 21 19 24 14 8 4 5 6 3 3 1 1 3 3 8 4 4 6 6 5 2 4 3 3 5 5 2 4 8 7 9 7 3 1 5 3 3 4 3 6
4 7 9 11 12 16 18 19 19 18 19 17 24 22 22 22 19 19 10 9 7 4 3 3 2 4 2 3 2 7 2 4 3 3 5 4 5 4 6 6 4 4 3 4 5 5 4 5 3 3 4 6 5 4
5 8 11 14 15 16 17 18 17 20 15 17 23 24 26 21 10 20 13 9 6 5 5 2 2 4 6 2 4 3 8 5 6 3 4 4 4 3 3 2 4 5 7 6 3 4 3 3 4 5 4 6 4 3
11 16 18 15 18 15 15 16 17 17 16 18 22 26 24 22 21 14 11 8 4 6 5 1 0 5 5 4 8 7 10 6 3 3 3 3 3 5 2 2 3 4 7 5 5 7 3 2 7 5 6 5 3 4
7 8 10 15 14 15 15 18 17 16 16 12 18 24 15 19 34 13 6 1 2 4 7 4 1 5 6 6 9 7 5 4 3 3 2 1 2 3 4 5 4 5 4 4 4 3 2 2 5 5 6 9 6 2
10 9 10 11 14 17 18 19 15 15 12 13 19 21 29 39 14 7 6 10 9 4 5 4 2 4 3 5 3 2 4 2 3 2 2 3 2 3 3 5 5 6 3 4 4 5 1 2 5 1 5 4 0 2
10 9 10 14 15 16 18 16 12 14 11 9 13 36 32 28 18 12 12 21 10 8 5 5 1 1 1 2 2 1 2 2 4 3 1 3 2 3 3 5 7 6 8 5 8 8 8 2 2 5 1 1 4 6
7 7 10 7 13 15 16 18 16 11 12 15 28 38 13 7 5 7 24 20 7 6 6 4 7 4 1 1 2 3 1 2 2 3 1 4 1 5 6 8 8 9 9 10 10 3 3 3 9 7 3 4 4 6
8 6 6 5 7 12 11 7 6 11 16 41 12 6 3 6 32 13 10 5 6 4 5 4 2 4 4 2 1 3 2 3 3 3 3 3 5 3 7 7 8 8 9 4 2 8 5 4 4 4 5 5 6 8
11 8 7 6 6 8 5 7 13 42 29 4 3 10 13 14 7 6 4 5 2 3 2 2 3 6 2 5 3 1 3 1 3 3 5 2 5 4 11 5 9 9 7 6 4 4 3 3 6 6 10 6 7 8
10 8 9 8 9 12 9 33 23 8 5 10 15 9 5 7 6 9 2 2 4 6 1 5 3 4 0 2 4 1 3 2 4 0 5 3 5 3 5 5 5 6 6 5 3 4 5 5 4 5 7 9 8 8
10 10 10 11 35 38 35 33 38 39 23 6 8 7 6 4 10 6 6 2 0 3 4 2 1 4 2 4 4 3 4 3 2 4 5 6 1 2 4 4 4 1 1 1 4 4 4 5 6 4 8 6 8 10
39 40 39 38 37 35 32 28 20 11 10 8 6 7 4 3 1 5 6 7 5 5 7 4 4 5 2 4 3 6 2 3 4 1 9 4 4 4 4 3 1 6 5 4 5 4 7 7 6 6 7 8 8 11
34 33 33 30 28 26 24 23 19 8 6 6 6 4 1 1 2 2 1 2 2 2 5 5 4 4 2 5 2 5 3 3 7 7 5 3 3 3 4 3 3 4 5 5 3 4 5 6 7 9 6 7 8 11
23 22 20 27 27 24 20 15 8 5 6 6 8 5 1 4 3 3 1 1 3 3 2 4 4 5 2 5 5 7 8 8 6 4 3 1 2 3 3 4 4 4 4 5 7 7 6 6 7 10 9 8 9 9
18 7 19 21 23 25 27 8 7 10 6 6 3 2 2 4 4 4 2 1 2 4 4 5 5 7 2 4 1 5 7 4 3 2 2 1 1 5 4 4 5 5 6 6 4 7 6 5 7 6 8 8 7 8
6 7 17 18 11 10 6 7 7 6 7 2 4 3 2 2 2 2 1 2 3 2 3 4 7 4 6 7 5 3 1 3 2 3 2 3 3 4 4 5 5 6 7 7 6 8 5 5 6 5 7 8 9 7
13 15 22 18 9 6 5 6 5 6 1 2 1 1 4 1 2 1 2 4 2 1 3 2 5 3 2 0 1 1 1 1 2 3 3 3 0 3 5 5 6 4 7 7 7 5 6 6 6 5 6 6 7 7
18 24 18 20 11 5 5 4 4 6 3 2 3 3 3 3 2 3 5 6 4 4 9 7 2 1 0 1 1 2 3 2 1 4 2 2 2 6 6 5 5 8 7 7 6 6 5 4 3 4 5 7 7 8
13 11 14 9 5 8 6 3 4 2 2 4 1 2 2 3 4 4 4 4 7 6 3 1 1 2 3 3 3 1 1 2 1 2 2 4 4 5 4 4 5 5 5 6 5 6 5 5 7 7 7 8 7 8
3 12 5 8 5 4 6 2 3 1 3 2 2 3 3 3 3 3 2 8 5 2 2 2 2 2 3 3 2 2 2 3 3 3 5 5 4 4 4 4 6 5 5 5 6 7 8 7 8 8 8 8 9 8
9 8 7 9 6 7 1 1 4 4 4 0 2 4 3 3 1 1 6 3 2 0 2 2 5 5 5 3 3 2 1 3 3 4 5 4 5 4 4 5 4 5 6 4 5 7 7 11 9 9 9 9 8 8
12 11 9 6 8 3 5 6 3 3 3 4 4 4 3 2 2 5 5 2 1 1 4 7 6 4 1 1 1 2 2 2 4 5 4 3 3 3 2 5 5 5 5 6 6 7 7 7 11 9 9 10 9 9
12 13 8 10 6 8 8 7 7 5 4 4 4 3 3 3 5 5 3 2 3 4 4 5 5 4 2 3 3 4 4 2 5 7 5 1 1 3 4 4 5 4 2 7 7 8 9 9 8 9 10 9 10 11
13 6 6 7 5 6 5 5 6 5 4 4 5 4 2 4 6 3 2 3 3 2 5 5 5 4 3 1 5 5 5 4 5 5 5 3 2 1 3 4 5 6 2 6 7 9 10 10 10 11 10 10 11 10
9 6 4 1 2 3 3 2 2 4 6 6 5 6 3 6 4 2 2 1 3 3 5 4 3 4 5 7 6 5 6 6 6 7 7 6 5 5 5 4 6 7 9 10 9 8 10 11 10 9 9 8 7 7
1 4 7 9 4 3 3 4 5 5 4 4 2 7 4 4 0 2 2 4 4 5 5 4 3 3 4 5 5 6 6 5 10 5 0 2 3 4 4 5 7 14 10 9 9 9 9 10 9 8 7 8 8 7
5 6 4 5 3 5 5 5 4 2 2 2 2 3 3 2 1 1 2 4 5 4 4 5 4 4 4 4 3 3 2 3 9 8 7 4 4 3 3 6 7 7 7 8 13 12 13 11 6 5 5 5 5 5
5 5 4 6 5 5 2 2 3 2 1 1 1 2 2 1 2 1 2 3 4 4 4 5 5 5 6 7 7 7 1 2 1 3 3 5 6 9 9 8 8 8 8 9 10 11 12 5 6 5 4 4 3 3
5 4 4 3 3 1 3 4 2 1 1 2 2 3 2 1 1 1 2 2 4 5 5 6 6 6 7 7 5 6 6 2 2 6 7 8 9 10 9 9 8 8 9 9 8 8 9 7 4 5 5 5 5 4
4 4 4 4 2 3 4 5 3 1 2 2 2 1 0 1 2 1 1 1 5 8 7 7 8 10 9 5 4 5 10 8 9 8 11 8 9 10 10 9 8 8 9 8 8 8 8 7 6 5 4 4 4 5
3 2 2 3 3 5 5 6 1 2 3 2 2 1 2 2 2 2 1 1 1 6 8 7 8 10 9 8 6 6 7 6 11 16 17 16 16 14 10 8 8 9 8 7 8 7 8 5 4 4 2 1 3 4
Wind_Direction
197 198 202 214 217 231 239 237 226 231 232 235 245 230 219 212 185 210 167 154 144 112 257 159 110 129 102 156 154 181 102 234 117 160 145 187 133 210 121 203 178 172 169 194 190 206 246 221 139 172 191 79 84 48
165 182 207 218 226 227 225 226 227 228 230 241 241 231 228 225 175 206 160 105 96 91 147 107 128 258 326 199 128 209 146 153 163 113 165 116 147 150 151 199 215 207 180 181 177 204 216 85 143 156 149 121 104 103
181 214 221 227 231 230 227 227 225 222 223 240 234 220 204 194 211 184 158 140 84 104 69 69 95 352 347 17 76 121 318 145 110 146 157 163 155 133 160 230 145 251 172 166 88 232 194 157 107 110 131 141 131 129
258 234 239 238 230 229 221 224 228 219 233 247 225 211 190 176 187 163 145 151 93 106 114 144 325 63 323 24 72 84 126 88 95 79 109 133 143 166 197 159 176 190 134 164 269 277 139 241 203 156 131 114 121 140
287 255 245 230 229 223 229 226 226 221 224 233 217 211 184 184 183 154 126 137 114 122 145 141 343 14 356 45 88 100 120 104 103 76 92 178 137 108 114 92 222 191 172 167 208 209 182 157 175 155 168 193 153 51
280 282 232 216 225 226 223 227 223 220 225 240 214 184 183 210 151 125 107 327 152 118 99 116 338 17 22 73 74 69 76 74 83 130 145 165 280 121 157 193 245 203 184 173 192 144 124 123 191 194 212 221 198 327
266 259 244 237 229 225 224 225 218 214 225 207 180 161 145 149 147 127 166 141 152 94 85 84 61 341 349 78 50 51 30 82 106 124 127 142 153 128 126 173 214 218 233 179 150 128 320 236 253 318 190 180 79 296
260 261 262 245 219 215 218 193 184 201 238 215 179 144 138 109 80 80 99 115 94 87 73 107 278 78 300 100 83 312 117 105 24 123 82 119 37 59 240 240 174 173 190 198 209 208 220 247 344 278 187 322 296 269
260 221 249 235 191 190 187 182 181 210 223 226 135 117 102 63 76 94 94 74 60 104 120 98 133 206 9 81 103 40 70 95 273 92 197 99 231 219 206 193 187 206 201 223 244 332 353 232 261 267 272 298 211 262
247 237 218 186 181 190 178 182 229 251 136 125 111 77 102 96 120 80 27 44 21 4 34 102 337 140 110 121 9 90 42 127 140 227 80 111 247 235 189 195 201 205 210 155 172 263 289 287 248 283 265 268 264 277
235 234 201 189 210 229 203 184 193 130 143 49 83 89 103 76 61 45 66 81 345 44 20 178 148 127 310 109 136 320 133 123 119 231 140 300 276 227 6 43 35 31 33 45 22 353 352 306 292 297 295 284 292 292
218 220 227 234 237 236 156 137 135 98 99 120 107 83 50 43 57 82 44 5 66 207 274 117 194 135 117 105 94 65 105 54 196 106 81 269 244 346 352 2 11 26 17 16 23 336 319 302 273 263 273 282 285 282
268 220 202 124 110 120 117 117 106 107 101 65 59 67 54 333 60 104 145 268 150 191 195 164 80 123 84 78 69 103 92 192 89 65 219 228 247 288 311 315 331 0 74 339 313 271 260 256 279 246 276 257 271 276
89 98 100 95 94 97 96 90 82 59 59 65 75 56 75 36 199 175 169 175 214 128 148 136 109 119 132 75 111 99 224 79 71 160 231 227 228 271 284 246 351 325 333 309 292 288 296 296 276 247 256 270 276 280
77 76 71 75 82 80 74 67 60 51 70 76 65 94 123 202 30 251 256 42 303 143 136 89 49 90 109 112 78 108 63 215 202 219 218 225 235 270 300 316 297 284 307 298 270 273 276 285 292 296 267 266 278 283
60 67 59 57 55 51 48 46 38 76 57 70 58 84 352 62 347 359 302 111 215 154 79 52 103 66 116 126 106 203 132 209 235 205 218 152 309 295 289 298 292 293 273 281 309 303 297 293 292 290 292 283 269 267
50 25 59 56 52 47 34 55 42 45 93 59 23 22 128 86 151 192 167 269 323 69 142 115 96 192 122 67 285 179 193 216 203 261 261 218 294 301 310 318 323 310 315 308 295 298 288 274 289 299 288 297 279 274
39 27 49 39 38 43 34 40 75 68 62 352 83 287 50 79 114 44 303 319 73 97 110 190 127 110 164 160 257 218 294 281 227 232 268 286 311 318 314 321 323 332 326 313 304 307 294 288 278 276 284 288 296 290
57 48 39 31 47 79 57 17 53 93 144 183 134 23 83 98 50 56 0 31 44 62 88 17 87 134 185 221 153 312 302 357 304 305 287 280 120 336 336 333 323 319 322 313 311 301 291 280 280 290 292 297 296 304
52 41 31 31 36 64 63 17 46 86 90 217 64 45 76 59 49 32 35 21 35 31 38 40 76 219 41 276 224 221 236 265 325 335 314 142 48 355 349 332 334 325 315 301 287 271 289 298 300 286 295 295 294 300
31 358 16 41 43 60 79 359 47 85 124 79 158 71 70 39 36 28 33 357 59 36 59 3 300 266 270 252 255 258 351 28 334 208 287 299 344 322 318 327 330 307 296 297 303 310 320 330 310 313 309 304 306 303
303 10 51 5 73 60 76 350 103 190 76 136 83 82 75 66 42 29 30 49 54 26 6 324 306 315 321 325 345 344 283 308 278 276 287 302 301 322 329 340 321 310 310 306 320 317 312 315 315 311 311 315 317 311
21 33 40 12 69 40 19 319 66 5 100 200 54 68 36 52 38 129 73 68 109 301 306 298 308 281 256 273 277 306 6 336 320 317 311 290 285 272 281 307 298 297 302 290 324 309 314 316 316 321 319 321 321 317
34 49 38 47 26 20 327 18 11 29 49 39 63 75 32 104 103 56 80 66 29 29 5 352 345 340 318 250 27 332 345 331 316 299 283 297 306 304 313 294 292 275 266 288 309 308 308 318 325 325 323 318 318 318
64 356 41 2 351 16 23 5 357 20 49 356 78 54 356 21 70 54 59 13 350 1 357 347 349 359 334 311 319 328 337 358 328 311 298 237 251 298 313 302 288 272 290 341 333 327 325 325 320 316 317 316 318 319
65 324 49 350 351 33 338 17 17 360 337 38 35 330 314 73 62 41 328 317 318 322 345 340 335 325 316 309 312 314 317 318 299 274 275 213 205 220 289 311 326 313 328 336 317 313 311 307 304 309 312 317 317 319
47 336 330 335 305 311 17 17 15 40 38 15 347 339 14 64 54 306 307 13 321 323 318 305 289 278 283 301 299 290 292 290 257 264 286 276 253 222 216 237 293 289 315 304 298 291 284 289 295 305 310 313 315 320
115 42 355 318 347 1 37 32 31 23 350 344 280 28 66 37 270 320 333 341 326 315 307 301 279 264 280 283 288 298 302 300 294 287 232 276 258 234 226 250 269 292 293 280 284 292 294 298 290 297 311 310 311 323
26 343 312 332 1 47 42 22 11 4 345 312 27 72 91 75 252 308 312 322 307 309 333 337 334 323 306 307 282 292 263 312 11 17 9 330 331 288 270 311 301 300 299 299 306 312 308 312 307 279 283 289 294 310
346 342 336 349 41 33 337 337 334 348 2 15 109 102 76 135 227 225 286 308 340 338 324 315 320 335 339 340 327 333 281 224 156 74 316 297 286 301 307 307 309 305 304 303 307 310 315 329 323 339 335 325 330 340
314 321 330 337 57 0 320 305 277 282 331 47 41 79 104 180 281 230 253 291 312 345 333 339 341 346 339 334 328 319 315 304 277 269 267 272 280 284 287 285 284 285 288 292 305 302 304 313 309 311 321 334 351 19
328 11 343 340 342 352 12 5 329 7 42 51 34 93 85 132 23 283 200 299 346 354 340 332 331 330 329 317 277 251 258 281 290 285 288 283 287 282 282 278 282 287 287 292 299 291 289 281 285 294 305 335 22 48
285 335 326 310 318 355 5 340 311 80 47 58 19 359 11 55 71 281 198 193 325 326 331 323 316 315 305 291 272 284 280 270 281 292 297 292 291 289 295 292 286 283 280 280 281 273 273 271 275 288 309 70 80 80